Flag for Germany Weather past 2 weeks in Hagen, North Rhine-Westphalia, Germany

Now
68 °F

Passing clouds.


Feels Like: 68 °F
Forecast: 59 / 69 °F
Wind: 9 mph from Southwest

Location: Dortmund / Wickede

Current Time: Aug 28, 2014 at 11:40:33 AM

Latest Report: Aug 28, 2014 at 11:20 AM


Visibility: N/A

Pressure: 30.01 "Hg

Humidity: 64%

Dew point: 55 °F

Location of HagenLocation

Historic Weather in Hagen — Graph

°F

Hagen temperature yesterday

Maximum temperature yesterday: 68 °F (at 3:20 PM)
Minimum temperature yesterday: 45 °F (at 5:20 AM)
Average temperature yesterday: 59 °F

Past Weeks' High & Low Weather Summary

 TemperatureHumidityPressure
High68 °F (Aug 13, 12:50 PM)100% (Aug 27, 6:20 AM)30.09 "Hg (Aug 27, 6:20 AM)
Low45 °F (Aug 27, 5:20 AM)43% (Aug 20, 2:50 PM)29.65 "Hg (Aug 13, 3:20 PM)
Average58 °F74%29.90 "Hg
* Reported Aug 13 10:20 AM — Aug 28 10:50 AM, Hagen, Weather by CustomWeather, © 2014

Note: Actual official high and low records may vary slightly from our data, if they occured in-between our weather recording intervals... More about our weather records

Advertising

Hagen weather history for previous 24 hours

 ConditionsComfort  
Time TempWeatherWind HumidityBarometerVisibility
10:50 AM
Aug 28
66 °FPassing clouds.10 mph64%30.01 "HgN/A
10:20 AM64 °FPassing clouds.9 mph68%30.01 "HgN/A
9:50 AM64 °FPassing clouds.9 mph68%30.01 "HgN/A
9:20 AM63 °FSunny.9 mph68%30.01 "Hg10 mi
8:50 AM61 °FSunny.8 mph72%30.01 "Hg10 mi
8:20 AM57 °FSunny.8 mph77%30.01 "Hg10 mi
7:50 AM55 °FSunny.10 mph77%30.01 "Hg10 mi
7:20 AM55 °FClear.12 mph72%30.01 "Hg10 mi
6:50 AM55 °FClear.10 mph72%30.01 "Hg10 mi
6:20 AM54 °FClear.10 mph77%30.01 "Hg10 mi
5:50 AM54 °FClear.9 mph77%30.01 "Hg10 mi
5:20 AM54 °FClear.10 mph77%30.01 "Hg10 mi
10:50 PM
Aug 27
57 °FClear.7 mph72%30.04 "Hg10 mi
10:20 PM57 °FPassing clouds.6 mph72%30.04 "HgN/A
9:50 PM55 °FClear.6 mph72%30.04 "Hg10 mi
9:20 PM59 °FSunny.5 mph63%30.04 "Hg10 mi
8:50 PM59 °FSunny.6 mph63%30.04 "Hg10 mi
7:50 PM64 °FPassing clouds.6 mph52%30.01 "HgN/A
7:20 PM66 °FPassing clouds.6 mph52%30.01 "HgN/A
6:20 PM68 °FPassing clouds.5 mph46%30.04 "HgN/A
5:50 PM68 °FPassing clouds.5 mph49%30.01 "HgN/A
4:20 PM68 °FPassing clouds.6 mph49%30.04 "HgN/A
3:50 PM68 °FPassing clouds.3 mph46%30.04 "HgN/A
3:20 PM68 °FPassing clouds.5 mph46%30.04 "HgN/A
2:50 PM66 °FPassing clouds.5 mph49%30.04 "HgN/A
2:20 PM66 °FPassing clouds.5 mph46%30.04 "HgN/A
1:50 PM66 °FScattered clouds.6 mph49%30.04 "HgN/A
1:20 PM66 °FPassing clouds.5 mph49%30.04 "HgN/A
12:20 PM64 °FPassing clouds.5 mph49%30.04 "HgN/A
11:50 AM63 °FPassing clouds.2 mph59%30.04 "HgN/A
11:20 AM63 °FPassing clouds.2 mph68%30.04 "HgN/A
Weather by CustomWeather, © 2014

See weather overviewHow to use our weather pages